Torna al catalogo

ASNARO

AttivoScienzaSSO
NORAD 40298·PAYLOAD·🇯🇵 Japan

Lanciato Nov 6, 2014 da Dombarovsky

Loading…

Prossimi Passaggi (prossime 24 ore)

TLE

AggiornatoSource: Space-Track

Epoca: Sep 14, 2026, 15:33 UTC

1 40298U 14070A   26257.64838946  .00004544  00000-0  21602-3 0  9996
2 40298  97.3384 331.3218 0004188 185.0426 175.0767 15.19683469657594

Traccia ASNARO in tempo reale con AllMySat

Download on the App Store